Wind_Speed
17 19 15 3 3 3 1 2 15 11 1 14 27 9 4 1 3 2 12 18 26 22 21 18 17 16 17 18 16 15 14 13 13 14 14 15 15 15 14 14 14 14 13 11 8 7 5 5 5
18 18 5 2 4 3 3 5 19 19 24 28 37 21 8 3 7 13 22 20 23 22 20 18 16 16 17 17 15 15 14 13 13 13 13 14 14 14 14 14 14 12 10 8 6 4 3 2 3
18 14 1 3 3 2 2 8 18 19 10 20 16 18 7 8 17 27 18 24 22 21 19 17 16 16 16 16 15 14 13 12 11 11 12 12 12 11 12 12 12 10 9 7 6 5 3 2 2
17 4 2 4 4 6 5 11 16 21 24 21 10 5 6 17 22 18 23 21 21 20 18 17 15 15 15 15 15 14 13 12 11 10 10 10 10 10 10 10 9 9 7 6 5 4 2 1 1
15 1 4 4 5 5 9 24 29 18 19 20 43 8 12 11 14 18 17 20 21 21 18 16 15 14 13 13 12 11 11 11 10 9 9 9 9 8 8 8 8 7 5 4 2 1 1 1 2
6 3 4 3 5 6 2 32 14 17 30 23 14 14 9 17 19 18 15 20 18 18 19 17 16 14 13 12 11 10 10 10 9 8 7 7 7 7 7 7 7 6 4 2 1 1 2 3 3
2 4 2 1 6 7 5 26 23 16 25 21 34 5 16 26 20 20 21 20 19 18 19 18 16 14 13 12 11 9 9 9 8 8 7 6 6 6 5 5 5 6 4 2 1 2 2 3 4
4 4 2 1 4 6 11 18 24 18 4 20 20 5 15 30 25 25 22 20 17 17 18 18 17 15 13 11 9 8 5 5 6 6 6 6 6 6 6 5 5 4 3 1 1 2 3 4 5
8 3 2 3 1 7 16 9 16 23 28 3 7 18 21 27 28 27 27 24 21 20 19 18 16 14 13 11 9 8 5 1 3 5 6 5 5 6 6 5 4 3 2 1 1 3 2 3 5
4 4 8 7 4 6 2 9 16 14 20 15 13 13 14 17 26 28 29 29 26 24 21 19 16 14 15 13 10 8 5 1 4 4 5 5 6 6 7 7 4 4 5 4 6 1 2 3 4
3 5 4 14 11 15 7 7 15 7 6 10 9 5 6 10 16 19 16 23 26 26 22 19 15 13 16 10 9 6 1 2 4 5 5 7 9 9 9 5 5 5 5 4 2 3 5 6 7
3 11 6 8 26 7 6 10 13 10 7 4 5 3 1 2 2 10 6 5 19 28 22 18 16 11 11 8 8 6 4 4 4 3 6 8 10 10 7 6 4 6 4 2 1 4 4 6 6
6 8 19 23 21 15 16 14 19 17 12 1 1 1 5 7 9 11 4 6 9 23 21 19 15 11 10 10 10 13 9 5 3 4 7 13 12 9 8 5 6 3 5 3 3 3 2 4 7
7 14 21 27 27 13 10 8 7 34 21 11 10 9 9 4 2 6 5 13 15 18 23 18 15 10 6 7 7 9 10 7 7 9 12 13 12 12 12 10 8 7 7 3 3 4 6 8 10
5 4 5 6 19 8 14 2 7 17 16 27 7 12 10 5 6 6 7 12 17 24 21 16 13 7 5 4 4 7 9 10 10 11 11 12 11 14 18 12 9 6 8 8 6 8 7 8 13
5 4 1 4 4 7 6 12 7 12 12 17 14 13 6 5 8 16 19 21 21 23 22 17 12 7 7 6 4 4 5 7 9 11 13 16 13 15 12 15 10 9 10 11 11 10 9 12 17
6 3 5 7 8 6 8 9 10 21 10 14 20 12 15 22 21 21 23 22 20 17 15 12 8 7 7 6 4 4 8 6 7 9 10 9 10 11 15 13 14 13 13 13 10 8 12 16 20
5 4 4 5 8 5 8 7 6 3 11 17 13 18 24 25 22 19 18 16 16 12 8 4 4 5 4 4 2 4 5 5 6 8 8 9 13 13 13 14 15 13 13 10 8 11 14 17 21
5 6 5 13 7 5 1 4 4 4 7 10 10 31 29 26 19 14 11 8 5 3 1 2 1 7 6 6 3 5 7 10 10 11 15 15 15 17 16 17 17 13 10 8 10 12 14 16 20
9 11 9 7 7 7 5 2 3 6 5 10 20 29 31 27 18 13 12 9 5 5 7 6 4 3 2 6 6 6 10 9 10 14 16 15 13 18 19 19 18 12 10 7 9 13 16 18 21
2 5 1 4 5 7 5 8 7 5 2 10 28 31 28 23 19 14 14 16 16 16 13 7 4 6 4 5 6 8 3 6 9 12 12 16 15 12 13 14 13 11 8 7 11 14 17 21 22
4 3 2 4 5 1 4 4 7 6 5 13 24 31 26 23 18 15 15 16 18 16 14 12 10 8 10 7 2 5 6 9 12 11 11 10 6 4 6 9 10 8 8 10 13 15 17 20 23
4 4 1 1 4 3 1 4 12 3 8 10 12 12 18 24 21 19 18 17 16 16 16 15 13 14 15 12 10 2 4 3 3 12 12 9 5 5 7 9 10 10 12 14 16 18 19 21 23
2 2 6 5 4 4 7 5 11 7 8 17 25 29 28 28 27 23 18 17 15 12 12 10 9 9 10 11 12 11 6 0 5 7 6 6 7 10 13 15 15 16 18 19 19 21 22 23 22
11 7 4 4 4 4 2 11 0 7 17 18 19 30 28 23 23 22 21 18 16 16 15 15 14 14 15 15 15 14 11 8 8 12 13 14 17 20 21 21 20 19 19 21 21 22 24 26 25
3 6 5 2 1 4 6 4 1 4 15 19 24 25 25 26 25 25 24 20 17 13 12 11 11 11 13 13 10 11 16 20 18 14 13 14 15 16 19 22 23 24 23 21 19 20 21 24 25
4 3 2 5 4 4 2 3 12 4 16 30 28 34 34 30 27 23 20 20 19 16 15 13 11 10 9 10 11 13 14 15 15 19 21 21 19 16 15 18 18 20 21 21 24 29 31 32 25
5 2 6 4 2 2 3 5 3 5 13 16 21 24 26 24 23 22 21 20 21 22 22 22 22 23 23 22 20 20 19 18 17 18 20 23 23 22 24 22 20 18 21 22 24 25 27 28 27
5 3 6 4 4 4 2 3 8 11 11 12 18 22 23 25 25 26 27 28 31 32 33 33 33 32 31 29 28 26 24 22 24 22 21 23 26 25 22 25 23 28 26 25 26 28 29 30 31
3 5 4 5 2 2 4 0 6 10 16 19 19 23 25 24 27 29 32 38 41 41 42 41 39 39 38 36 34 32 27 24 23 23 21 20 21 24 27 27 26 24 24 27 28 26 26 27 31
Wind_Direction
343 338 331 287 33 66 104 270 105 316 302 211 182 204 217 154 159 191 145 169 170 158 156 156 156 158 158 156 150 142 134 125 124 125 129 132 131 130 128 129 135 144 149 150 145 138 116 95 106
337 330 314 316 70 12 129 204 147 183 205 182 186 216 248 210 141 143 149 165 161 155 156 155 155 157 158 159 156 150 145 137 133 132 133 135 137 136 135 135 136 142 150 155 158 157 162 148 123
338 342 156 97 122 48 287 186 155 194 206 170 186 189 194 161 151 145 157 156 157 157 154 153 154 157 159 160 160 156 152 149 141 137 137 138 140 141 141 140 138 137 143 150 160 169 169 160 158
340 322 62 71 309 254 271 165 167 182 186 217 183 179 176 153 155 161 150 154 161 159 154 151 154 156 159 160 161 159 159 158 152 144 141 144 146 149 151 152 151 148 148 150 158 170 175 184 229
340 5 47 18 293 286 11 20 148 159 165 44 339 110 128 157 164 151 151 162 168 159 156 156 156 155 157 158 158 159 162 164 162 155 153 154 155 156 159 163 168 170 164 153 138 140 176 227 262
337 50 44 348 296 289 15 20 51 130 97 126 298 109 132 157 149 145 149 161 168 160 160 164 159 156 158 156 154 156 161 168 169 166 163 164 164 165 169 174 182 186 181 177 228 309 317 321 321
122 81 203 266 301 321 22 7 30 9 149 162 170 198 144 166 155 143 145 151 155 163 163 166 162 159 157 154 151 150 159 169 175 176 173 173 175 173 175 181 187 191 196 214 279 336 343 339 331
326 99 117 342 346 298 354 2 4 12 319 147 158 161 163 179 176 168 160 161 156 165 172 170 166 162 158 152 143 137 142 169 181 183 181 182 184 180 179 181 182 186 207 251 337 1 4 355 347
275 59 181 176 22 271 339 11 355 12 39 148 187 149 177 183 177 180 175 175 174 176 179 176 167 164 160 152 141 129 112 100 212 201 191 183 182 184 184 171 152 159 185 167 101 93 52 55 36
130 135 222 184 207 275 322 346 334 8 32 22 83 107 109 152 181 189 183 185 190 187 184 181 170 170 170 162 156 153 144 333 221 228 209 193 188 176 164 147 150 126 144 138 147 191 315 343 349
216 212 189 329 288 269 294 301 332 33 35 43 59 36 80 100 99 167 207 222 214 197 189 178 170 169 175 172 175 174 179 224 211 231 228 210 194 179 165 175 172 166 167 148 163 59 356 353 354
223 263 223 235 267 205 263 308 298 305 305 322 32 44 244 272 335 20 75 98 210 198 189 176 171 173 181 188 197 196 224 189 166 212 227 215 196 206 196 191 221 242 205 249 201 43 35 27 6
171 255 264 239 265 215 202 193 265 289 287 206 327 192 205 258 276 342 85 108 157 196 186 178 178 185 187 187 203 209 201 187 201 193 190 193 212 224 228 222 234 221 234 216 107 30 6 325 325
276 284 266 248 227 242 176 193 175 245 282 256 271 192 176 199 278 327 129 140 160 180 177 179 182 184 196 205 206 222 212 218 216 205 198 205 224 231 224 212 217 194 192 171 209 287 306 316 319
254 269 282 208 218 216 177 213 193 246 268 286 262 172 141 145 248 269 190 155 156 162 165 170 192 219 209 253 253 208 212 220 221 229 243 256 242 262 248 217 207 223 211 194 250 276 302 299 314
3 40 324 283 228 244 171 253 193 232 238 275 196 167 152 124 101 123 133 138 145 160 169 172 181 204 239 260 266 264 214 231 230 240 246 256 251 250 226 193 190 188 196 230 254 284 303 308 312
5 244 283 316 242 228 165 240 238 244 257 177 183 170 126 120 112 109 116 132 135 142 144 162 173 206 234 254 244 270 270 263 244 241 236 228 198 179 192 200 188 206 228 254 270 293 307 314 316
255 291 301 270 290 250 193 207 168 179 184 191 177 128 122 114 107 108 103 112 134 129 125 131 126 150 217 248 240 245 257 249 262 264 249 220 178 184 184 189 206 218 245 259 284 303 311 319 318
274 282 285 293 283 67 186 127 197 237 191 180 149 130 117 112 116 124 122 91 64 50 301 306 191 146 203 222 222 243 253 259 264 243 254 214 211 194 197 206 224 237 247 274 296 309 317 323 325
256 261 266 246 354 73 8 319 272 293 257 212 153 133 127 122 120 105 76 61 52 30 15 22 84 147 242 269 257 253 260 256 226 230 208 215 196 196 212 229 233 243 263 291 311 320 325 332 336
156 115 40 50 335 15 44 336 329 307 250 143 150 137 132 134 124 104 88 80 72 55 43 23 10 13 324 297 285 286 315 224 209 189 189 208 227 233 234 233 235 245 270 304 323 328 330 331 333
65 307 67 83 73 241 79 267 294 313 102 107 129 137 141 134 124 114 94 81 62 59 56 50 36 14 21 4 19 66 110 180 200 206 206 213 213 244 266 259 249 267 289 311 323 324 327 329 328
202 269 289 288 80 62 360 74 324 13 88 44 45 98 120 127 119 110 96 92 86 83 78 76 73 61 42 31 35 354 265 279 301 179 182 194 210 245 249 263 282 282 286 300 312 317 325 330 328
339 18 29 41 83 32 306 132 4 4 71 76 68 67 88 96 90 96 102 108 97 89 81 62 49 27 14 13 17 17 33 164 197 196 209 235 244 234 240 243 251 267 289 295 306 314 320 324 325
39 46 1 22 27 213 133 54 17 87 91 92 92 85 84 78 76 77 75 67 55 45 34 37 33 27 12 356 353 341 337 337 317 308 299 287 279 263 259 260 268 279 280 295 306 314 321 321 318
9 120 135 124 113 267 14 92 155 89 95 89 88 83 74 69 69 73 74 76 71 69 46 31 13 345 335 332 345 341 328 316 305 295 302 291 270 265 271 275 281 286 290 296 301 315 322 324 319
322 41 157 110 357 70 77 160 29 42 69 61 60 62 60 60 58 58 59 50 42 38 31 17 12 4 359 339 315 296 299 293 300 300 289 279 273 270 269 275 282 284 290 297 300 307 311 309 311
89 242 35 13 82 76 339 61 169 6 65 65 54 50 47 43 39 32 23 15 7 360 354 346 342 336 328 317 312 309 304 294 290 288 288 286 283 271 274 266 276 285 300 296 306 315 314 309 309
0 29 59 105 112 140 139 277 30 60 58 57 48 41 29 20 12 4 356 350 343 337 333 328 323 320 317 316 312 303 293 293 289 290 288 282 278 270 259 277 269 281 272 281 299 306 310 311 310
104 64 92 110 248 117 140 113 5 47 54 48 28 14 7 2 355 349 344 336 331 328 325 322 319 315 312 306 301 298 294 287 284 278 280 284 283 283 282 277 266 269 279 284 288 299 302 306 313
Height
1522 1520 1517 1515 1525 1522 1535 1528 1516 1529 1526 1520 1517 1515 1513 1509 1511 1522 1511 1515 1519 1521 1524 1526 1527 1530 1531 1532 1532 1532 1533 1533 1533 1533 1533 1534 1534 1535 1537 1537 1539 1540 1542 1543 1544 1545 1545 1545 1545
1521 1518 1517 1514 1532 1538 1535 1519 1518 1509 1504 1507 1508 1510 1514 1510 1508 1508 1513 1517 1520 1522 1524 1526 1527 1529 1531 1532 1533 1533 1533 1533 1533 1533 1534 1535 1535 1536 1538 1538 1539 1541 1543 1544 1545 1545 1545 1546 1546
1519 1516 1516 1519 1534 1538 1526 1513 1509 1508 1510 1509 1508 1509 1507 1507 1508 1509 1513 1517 1521 1524 1525 1526 1528 1530 1531 1532 1533 1533 1533 1535 1535 1535 1535 1535 1536 1537 1538 1539 1540 1541 1542 1543 1544 1545 1545 1545 1546
1518 1517 1517 1528 1530 1520 1511 1498 1497 1507 1509 1517 1507 1504 1504 1506 1505 1508 1511 1515 1520 1523 1524 1525 1528 1530 1531 1532 1533 1533 1534 1535 1536 1535 1536 1536 1536 1536 1538 1539 1540 1541 1542 1543 1543 1544 1545 1545 1545
1517 1517 1528 1534 1528 1514 1507 1496 1505 1507 1508 1520 1519 1501 1505 1508 1509 1510 1513 1516 1519 1521 1523 1526 1529 1530 1532 1532 1533 1533 1535 1536 1536 1536 1536 1537 1537 1538 1539 1540 1541 1542 1543 1543 1543 1544 1544 1544 1544
1518 1519 1536 1542 1530 1513 1509 1501 1504 1500 1511 1513 1510 1501 1508 1510 1511 1512 1514 1516 1519 1520 1522 1525 1527 1529 1531 1532 1532 1533 1534 1536 1537 1537 1537 1537 1538 1539 1540 1541 1541 1542 1543 1544 1544 1544 1544 1544 1544
1519 1525 1532 1527 1527 1515 1512 1507 1507 1509 1505 1511 1509 1509 1508 1511 1513 1512 1514 1515 1517 1519 1521 1524 1526 1528 1529 1531 1532 1533 1534 1536 1536 1537 1537 1537 1538 1539 1540 1541 1541 1542 1542 1543 1543 1544 1544 1544 1544
1519 1521 1526 1526 1530 1523 1509 1507 1511 1511 1508 1501 1503 1506 1509 1511 1513 1514 1514 1516 1518 1520 1523 1524 1526 1527 1529 1531 1531 1532 1534 1535 1536 1537 1537 1538 1539 1539 1540 1541 1541 1542 1542 1543 1544 1544 1544 1543 1543
1517 1529 1532 1525 1523 1519 1509 1509 1510 1512 1506 1509 1505 1504 1509 1515 1517 1514 1515 1517 1519 1521 1522 1524 1524 1526 1528 1530 1531 1532 1534 1534 1536 1537 1537 1537 1538 1539 1540 1540 1541 1541 1542 1542 1543 1544 1543 1543 1542
1515 1529 1525 1512 1513 1513 1514 1511 1511 1513 1513 1512 1512 1515 1517 1517 1516 1517 1518 1518 1519 1518 1519 1521 1523 1525 1526 1529 1530 1531 1532 1533 1534 1536 1536 1537 1538 1539 1540 1540 1540 1540 1540 1540 1541 1542 1542 1542 1542
1512 1520 1512 1513 1512 1511 1509 1509 1510 1512 1517 1517 1516 1513 1514 1515 1518 1519 1517 1514 1514 1517 1519 1521 1524 1525 1528 1528 1529 1530 1531 1532 1533 1535 1535 1536 1537 1539 1539 1539 1540 1539 1539 1539 1539 1540 1542 1541 1541
1513 1508 1510 1508 1508 1511 1508 1503 1505 1513 1517 1516 1516 1515 1514 1513 1512 1514 1513 1512 1512 1515 1519 1521 1523 1524 1526 1528 1529 1530 1531 1532 1532 1533 1534 1535 1537 1537 1538 1538 1539 1539 1540 1540 1539 1538 1538 1539 1539
1509 1506 1504 1504 1503 1506 1506 1508 1505 1507 1514 1514 1515 1515 1515 1514 1513 1512 1511 1511 1512 1515 1519 1520 1522 1524 1525 1526 1528 1529 1530 1530 1531 1532 1533 1534 1535 1536 1536 1535 1538 1539 1539 1539 1541 1539 1536 1536 1537
1503 1505 1501 1501 1500 1503 1506 1505 1508 1509 1508 1512 1511 1512 1513 1514 1514 1514 1510 1510 1512 1515 1518 1520 1521 1522 1524 1525 1526 1528 1528 1528 1529 1531 1531 1532 1533 1534 1533 1535 1537 1537 1539 1539 1538 1538 1536 1536 1536
1502 1505 1499 1494 1496 1501 1502 1508 1504 1505 1508 1501 1507 1509 1508 1512 1512 1513 1511 1509 1510 1516 1518 1519 1521 1521 1523 1524 1524 1524 1525 1527 1529 1531 1531 1532 1532 1533 1533 1535 1535 1535 1535 1537 1537 1536 1534 1535 1534
1502 1504 1511 1496 1495 1496 1498 1508 1498 1502 1503 1501 1505 1507 1507 1510 1512 1511 1513 1514 1516 1520 1519 1520 1522 1523 1525 1525 1523 1524 1526 1526 1528 1529 1530 1530 1529 1530 1532 1533 1533 1533 1533 1535 1535 1534 1533 1533 1532
1513 1522 1513 1505 1491 1491 1496 1499 1492 1496 1498 1498 1500 1503 1505 1509 1512 1512 1513 1515 1517 1518 1521 1523 1523 1523 1523 1524 1524 1526 1527 1528 1528 1528 1528 1527 1527 1528 1530 1531 1531 1533 1533 1533 1533 1532 1532 1530 1527
1522 1516 1510 1509 1495 1488 1494 1495 1491 1494 1495 1496 1502 1504 1505 1508 1512 1512 1512 1515 1518 1518 1518 1520 1522 1522 1522 1522 1523 1526 1526 1527 1528 1528 1528 1527 1528 1528 1529 1530 1531 1532 1532 1532 1531 1531 1529 1527 1523
1511 1511 1516 1502 1492 1491 1494 1492 1490 1491 1494 1498 1502 1503 1506 1508 1511 1512 1513 1515 1517 1517 1517 1517 1517 1519 1520 1520 1521 1522 1525 1526 1526 1526 1527 1526 1526 1527 1528 1529 1531 1530 1530 1529 1529 1528 1526 1524 1520
1507 1512 1513 1500 1491 1491 1493 1493 1491 1490 1490 1492 1500 1503 1504 1508 1510 1511 1513 1514 1514 1515 1517 1517 1518 1519 1520 1520 1520 1520 1524 1523 1522 1524 1524 1526 1525 1527 1528 1528 1527 1527 1528 1527 1526 1525 1522 1520 1516
1509 1510 1509 1506 1499 1496 1499 1509 1498 1490 1491 1491 1496 1500 1505 1507 1509 1512 1512 1513 1515 1516 1516 1518 1519 1520 1522 1521 1519 1519 1521 1522 1522 1524 1525 1528 1527 1527 1528 1528 1526 1525 1525 1525 1524 1522 1519 1517 1515
1514 1502 1502 1505 1515 1525 1506 1540 1512 1500 1497 1495 1500 1501 1505 1508 1511 1513 1512 1514 1518 1520 1520 1520 1521 1522 1521 1521 1520 1519 1521 1523 1523 1525 1527 1527 1527 1526 1525 1526 1525 1523 1523 1523 1521 1520 1517 1514 1511
1507 1497 1499 1500 1512 1518 1519 1534 1527 1504 1510 1511 1511 1511 1515 1517 1517 1515 1515 1518 1521 1523 1523 1523 1523 1522 1523 1522 1521 1522 1520 1521 1520 1523 1524 1525 1524 1522 1523 1523 1521 1521 1521 1519 1517 1515 1513 1510 1508
1497 1500 1508 1514 1520 1544 1525 1527 1539 1528 1523 1521 1520 1520 1521 1520 1518 1519 1522 1524 1526 1527 1526 1525 1523 1523 1524 1523 1522 1523 1519 1519 1521 1522 1523 1523 1523 1522 1522 1521 1519 1517 1517 1515 1512 1511 1509 1506 1505
1505 1521 1548 1541 1550 1546 1522 1534 1544 1533 1525 1526 1524 1524 1526 1527 1526 1527 1527 1529 1529 1530 1529 1526 1524 1525 1525 1525 1522 1520 1519 1517 1516 1519 1519 1520 1519 1518 1518 1516 1515 1514 1511 1510 1507 1507 1505 1502 1500
1511 1521 1550 1550 1556 1546 1526 1546 1545 1532 1529 1528 1528 1530 1531 1531 1531 1531 1531 1534 1534 1531 1529 1526 1523 1522 1521 1521 1521 1519 1517 1516 1515 1515 1515 1516 1516 1514 1512 1512 1510 1509 1508 1505 1502 1501 1499 1497 1495
1514 1526 1518 1538 1543 1547 1543 1538 1532 1528 1532 1534 1538 1537 1539 1540 1538 1537 1536 1536 1534 1532 1529 1527 1523 1522 1521 1519 1518 1518 1514 1513 1512 1512 1509 1509 1509 1507 1505 1504 1503 1503 1502 1501 1497 1495 1493 1491 1490
1512 1513 1538 1548 1556 1555 1554 1549 1551 1539 1546 1543 1544 1543 1543 1543 1542 1540 1538 1535 1533 1530 1527 1523 1521 1519 1518 1517 1515 1513 1511 1508 1506 1505 1504 1502 1501 1499 1498 1495 1494 1495 1496 1497 1491 1489 1486 1486 1484
1522 1527 1533 1543 1554 1571 1576 1563 1553 1554 1551 1549 1550 1548 1548 1544 1541 1538 1535 1532 1529 1527 1523 1520 1517 1514 1511 1509 1507 1506 1504 1502 1499 1498 1497 1495 1493 1492 1489 1488 1488 1487 1487 1488 1486 1483 1481 1480 1478
1517 1524 1536 1563 1549 1559 1568 1574 1566 1562 1557 1551 1551 1549 1545 1542 1539 1536 1532 1528 1524 1520 1516 1512 1509 1505 1503 1500 1498 1495 1493 1493 1491 1490 1488 1487 1485 1484 1482 1482 1481 1481 1482 1479 1477 1476 1476 1474 1471